DW2213 Weather Reports


time (UTC)temp
C
wind
direction
speed
KPH
gust
KPH
rain 1hr
cm
rain 24hr
cm
rain mn
cm
humidity
%
barometer
mb
20260905141805 33 147 4.8 12.9 0.00 0.00 0.00 52 1015.4
20260905141305 34 141 4.8 11.3 0.00 0.00 0.00 52 1015.5
20260905140804 33 133 4.8 12.9 0.00 0.00 0.00 50 1015.5
20260905140305 34 143 3.2 9.7 0.00 0.00 0.00 50 1015.5
20260905135805 34 155 3.2 11.3 0.00 0.00 0.00 48 1015.5
20260905135306 33 148 3.2 9.7 0.00 0.00 0.00 48 1015.6
20260905134805 33 143 4.8 11.3 0.00 0.00 0.00 47 1015.6
20260905134305 34 142 3.2 9.7 0.00 0.00 0.00 48 1015.7
20260905133804 34 143 6.4 14.5 0.00 0.00 0.00 47 1015.7
20260905133305 34 150 3.2 11.3 0.00 0.00 0.00 49 1015.7
20260905131805 34 124 1.6 4.8 0.00 0.00 0.00 53 1016.0
20260905131305 33 139 1.6 8.0 0.00 0.00 0.00 54 1016.1
20260905130805 33 134 3.2 12.9 0.00 0.00 0.00 54 1016.0
20260905130305 34 149 3.2 11.3 0.00 0.00 0.00 54 1016.0
20260905125804 33 141 3.2 11.3 0.00 0.00 0.00 54 1016.0
20260905125306 33 138 3.2 11.3 0.00 0.00 0.00 55 1016.1
20260905124805 33 97 1.6 8.0 0.00 0.00 0.00 55 1016.1
20260905124305 33 145 4.8 9.7 0.00 0.00 0.00 55 1016.1
20260905123305 33 139 3.2 9.7 0.00 0.00 0.00 55 1016.2
20260905122805 33 138 1.6 9.7 0.00 0.00 0.00 56 1016.1
20260905122307 33 137 1.6 9.7 0.00 0.00 0.00 56 1016.1
20260905121805 33 138 3.2 9.7 0.00 0.00 0.00 57 1016.1
20260905121305 33 144 4.8 9.7 0.00 0.00 0.00 57 1016.1
20260905120305 33 153 3.2 9.7 0.00 0.00 0.00 57 1016.2
20260905115805 33 146 1.6 14.5 0.00 0.00 0.00 57 1016.2
20260905115306 33 143 3.2 12.9 0.00 0.00 0.00 56 1016.3
20260905114804 34 153 3.2 11.3 0.00 0.00 0.00 56 1016.3
20260905113805 33 143 3.2 9.7 0.00 0.00 0.00 56 1016.3
20260905113305 33 155 3.2 11.3 0.00 0.00 0.00 56 1016.3
20260905112805 33 148 1.6 8.0 0.00 0.00 0.00 57 1016.4
20260905111804 33 138 3.2 9.7 0.00 0.00 0.00 57 1016.3
20260905111305 33 147 3.2 9.7 0.00 0.00 0.00 56 1016.3
20260905110304 33 139 1.6 11.3 0.00 0.00 0.00 54 1016.4
20260905105804 34 134 1.6 4.8 0.00 0.00 0.00 54 1016.3
20260905105306 33 145 1.6 8.0 0.00 0.00 0.00 55 1016.3
20260905104804 34 151 1.6 8.0 0.00 0.00 0.00 55 1016.4
20260905104304 34 144 3.2 9.7 0.00 0.00 0.00 52 1016.4
20260905103804 34 138 1.6 8.0 0.00 0.00 0.00 53 1016.4
20260905102804 34 155 1.6 4.8 0.00 0.00 0.00 53 1016.4
20260905102306 33 148 0.0 4.8 0.00 0.00 0.00 53 1016.4
20260905101805 33 150 1.6 4.8 0.00 0.00 0.00 54 1016.4
20260905100804 33 142 1.6 4.8 0.00 0.00 0.00 55 1016.4
20260905100306 33 140 0.0 9.7 0.00 0.00 0.00 55 1016.4
20260905095804 33 161 3.2 8.0 0.00 0.00 0.00 56 1016.3
20260905095306 32 238 0.0 3.2 0.00 0.00 0.00 56 1016.2
20260905094804 32 238 0.0 1.6 0.00 0.00 0.00 55 1016.2
20260905093304 32 264 0.0 3.2 0.00 0.00 0.00 57 1016.1
20260905092804 31 264 1.6 4.8 0.00 0.00 0.00 56 1016.1
20260905092306 31 318 0.0 4.8 0.00 0.00 0.00 58 1016.1
20260905091804 31 242 0.0 3.2 0.00 0.00 0.00 61 1016.1
20260905090804 30 240 0.0 9.7 0.00 0.00 0.00 65 1016.1
20260905090305 30 249 1.6 8.0 0.00 0.00 0.00 66 1016.1
20260905085804 30 254 0.0 4.8 0.00 0.00 0.00 67 1016.1
20260905085306 29 253 1.6 4.8 0.00 0.00 0.00 68 1016.1
20260905084805 28 241 0.0 4.8 0.00 0.00 0.00 69 1016.1
20260905084305 28 237 0.0 4.8 0.00 0.00 0.00 69 1016.0
20260905083804 28 237 0.0 4.8 0.00 0.00 0.00 69 1016.0
20260905083305 28 340 1.6 4.8 0.00 0.00 0.00 69 1015.9
20260905082805 28 251 3.2 8.0 0.00 0.00 0.00 68 1015.8
20260905082307 28 225 0.0 4.8 0.00 0.00 0.00 69 1015.9
20260905081805 27 278 1.6 4.8 0.00 0.00 0.00 70 1015.8
20260905081305 27 222 0.0 8.0 0.00 0.00 0.00 71 1015.8
20260905080805 27 268 0.0 4.8 0.00 0.00 0.00 71 1015.7
20260905080304 27 311 0.0 3.2 0.00 0.00 0.00 73 1015.6
20260905075306 27 217 1.6 4.8 0.00 0.00 0.00 75 1015.6
20260905074805 26 216 0.0 3.2 0.00 0.00 0.00 76 1015.7
20260905072804 25 292 0.0 0.0 0.00 0.00 0.00 81 1015.6
20260905072306 25 297 0.0 0.0 0.00 0.00 0.00 82 1015.5
20260905071304 25 299 0.0 0.0 0.00 0.00 0.00 83 1015.5
20260905070804 25 298 0.0 0.0 0.00 0.00 0.00 83 1015.5
20260905070305 24 297 0.0 0.0 0.00 0.00 0.00 83 1015.5
20260905065805 24 298 0.0 0.0 0.00 0.00 0.00 83 1015.5
20260905065306 24 298 0.0 0.0 0.00 0.00 0.00 83 1015.5
20260905064805 24 298 0.0 0.0 0.00 0.00 0.00 84 1015.5
20260905063805 23 298 0.0 0.0 0.00 0.00 0.00 84 1015.6
20260905063304 23 298 0.0 0.0 0.00 0.00 0.00 84 1015.6
20260905062804 23 298 0.0 0.0 0.00 0.00 0.00 84 1015.6
20260905062306 23 298 0.0 0.0 0.00 0.00 0.00 84 1015.6
20260905061804 23 297 0.0 0.0 0.00 0.00 0.00 84 1015.6
20260905061304 24 297 0.0 0.0 0.00 0.00 0.00 84 1015.6
20260905060804 23 298 0.0 0.0 0.00 0.00 0.00 84 1015.6
20260905060305 23 298 0.0 0.0 0.00 0.00 0.00 84 1015.6
20260905055804 23 297 0.0 0.0 0.00 0.00 0.00 84 1015.5
20260905055306 23 297 0.0 0.0 0.00 0.00 0.00 85 1015.4
20260905054805 23 297 0.0 0.0 0.00 0.00 0.00 85 1015.4
20260905054305 23 297 0.0 0.0 0.00 0.00 0.00 86 1015.4
20260905053805 23 297 0.0 0.0 0.00 0.00 0.00 86 1015.4
20260905053304 23 297 0.0 0.0 0.00 0.00 0.00 87 1015.3
20260905052804 23 297 0.0 0.0 0.00 0.00 0.00 87 1015.2
20260905052306 23 297 0.0 0.0 0.00 0.00 0.00 88 1015.2
20260905051804 23 297 0.0 0.0 0.00 0.00 0.00 89 1015.1
20260905051304 23 296 0.0 0.0 0.00 0.00 0.00 89 1015.1
20260905050804 23 296 0.0 0.0 0.00 0.00 0.00 89 1015.1
20260905050304 23 296 0.0 0.0 0.00 0.00 0.00 89 1015.1
20260905045805 23 296 0.0 0.0 0.00 0.00 0.00 90 1015.1
20260905045306 23 296 0.0 0.0 0.00 0.00 0.00 90 1015.1
20260905044804 23 296 0.0 0.0 0.00 0.00 0.00 90 1015.1
20260905044304 23 296 0.0 0.0 0.00 0.00 0.00 90 1015.2
20260905043304 23 300 0.0 1.6 0.00 0.00 0.00 90 1015.1
20260905042804 23 301 0.0 0.0 0.00 0.00 0.00 90 1015.1
20260905042307 23 300 0.0 0.0 0.00 0.00 0.00 90 1015.1
20260905041804 23 300 0.0 0.0 0.00 0.00 0.00 89 1015.1
20260905041304 23 300 0.0 0.0 0.00 0.00 0.00 90 1015.0
20260905040805 23 300 0.0 1.6 0.00 0.00 0.00 90 1014.9
20260905040305 23 299 0.0 0.0 0.00 0.00 0.00 89 1015.0
20260905035804 23 302 0.0 0.0 0.00 0.00 0.00 89 1015.0
20260905035306 23 302 0.0 0.0 0.00 0.00 0.00 89 1015.0
20260905034805 23 302 0.0 0.0 0.00 0.00 0.00 89 1015.0
20260905034305 23 302 0.0 0.0 0.00 0.00 0.00 89 1015.1
20260905033304 24 302 0.0 0.0 0.00 0.00 0.00 89 1015.0
20260905032804 24 302 0.0 0.0 0.00 0.00 0.00 89 1014.9
20260905031804 24 302 0.0 0.0 0.00 0.00 0.00 89 1015.0
20260905031304 24 302 0.0 0.0 0.00 0.00 0.00 88 1015.0
20260905030805 24 302 0.0 0.0 0.00 0.00 0.00 88 1015.0
20260905025804 24 301 0.0 0.0 0.00 0.00 0.00 88 1014.9
20260905025306 24 302 0.0 0.0 0.00 0.00 0.00 88 1014.9
20260905024805 24 302 0.0 0.0 0.00 0.00 0.00 88 1014.9
20260905024304 24 302 0.0 0.0 0.00 0.00 0.00 88 1014.9
20260905023304 25 300 0.0 0.0 0.00 0.00 0.00 88 1014.8
20260905022804 25 299 0.0 0.0 0.00 0.00 0.00 88 1014.8
20260905021804 25 302 0.0 3.2 0.00 0.00 0.00 88 1014.7
20260905021304 25 306 0.0 0.0 0.00 0.00 0.00 88 1014.7
20260905020805 25 302 0.0 0.0 0.00 0.00 0.00 88 1014.8
20260905020304 25 299 0.0 3.2 0.00 0.00 0.00 88 1014.7
20260905015804 25 307 0.0 4.8 0.00 0.00 0.00 88 1014.7
20260905015306 25 305 0.0 0.0 0.00 0.00 0.00 87 1014.7
20260905014804 25 299 0.0 4.8 0.00 0.00 0.00 87 1014.7
20260905014305 25 299 0.0 3.2 0.00 0.00 0.00 87 1014.6
20260905013305 25 294 0.0 0.0 0.00 0.00 0.00 87 1014.6
20260905012804 25 290 0.0 0.0 0.00 0.00 0.00 87 1014.6
20260905012306 25 289 0.0 0.0 0.00 0.00 0.00 87 1014.6
20260905011804 25 288 0.0 0.0 0.00 0.00 0.00 87 1014.6
20260905011305 25 289 0.0 0.0 0.00 0.00 0.00 87 1014.6
20260905010304 25 290 0.0 0.0 0.00 0.00 0.00 87 1014.6
20260905005804 25 290 0.0 0.0 0.00 0.00 0.00 87 1014.6
20260905005306 25 288 0.0 0.0 0.00 0.00 0.00 87 1014.7
20260905004804 25 289 0.0 0.0 0.00 0.00 0.00 87 1014.8
20260905004305 25 288 0.0 0.0 0.00 0.00 0.00 87 1014.8
20260905003304 25 288 0.0 0.0 0.00 0.00 0.00 87 1014.8
20260905002804 25 288 0.0 0.0 0.00 0.00 0.00 87 1014.8
20260905002306 25 288 0.0 0.0 0.00 0.00 0.00 87 1014.7
20260905001804 25 288 0.0 0.0 0.00 0.00 0.00 87 1014.8
20260905001304 25 288 0.0 0.0 0.00 0.00 0.00 87 1014.8
20260905000305 25 288 0.0 0.0 0.00 0.00 0.00 86 1014.8
20260904235805 25 288 0.0 0.0 0.00 0.00 0.00 86 1014.8
20260904234804 25 288 0.0 0.0 0.00 0.00 0.00 86 1014.9
20260904234304 25 288 0.0 0.0 0.00 0.00 0.00 86 1014.9
20260904233804 26 288 0.0 0.0 0.00 0.00 0.00 86 1014.9
20260904233304 26 291 0.0 0.0 0.00 0.00 0.00 86 1014.9
20260904232804 26 291 0.0 0.0 0.00 0.00 0.00 86 1015.0
20260904232306 26 291 0.0 0.0 0.00 0.00 0.00 86 1015.0
20260904231804 25 292 0.0 0.0 0.00 0.00 0.00 86 1015.0
20260904231304 25 292 0.0 0.0 0.00 0.00 0.00 86 1014.9
20260904230804 26 292 0.0 0.0 0.00 0.00 0.00 86 1014.8
20260904230304 26 292 0.0 0.0 0.00 0.00 0.00 86 1014.8
20260904225805 26 293 0.0 0.0 0.00 0.00 0.00 86 1014.8
20260904225305 26 294 0.0 0.0 0.00 0.00 0.00 86 1014.8
20260904223804 26 293 0.0 0.0 0.00 0.00 0.00 86 1014.7
20260904223304 26 293 0.0 0.0 0.00 0.00 0.00 86 1014.7
20260904222804 26 293 0.0 0.0 0.00 0.00 0.00 86 1014.7
20260904222306 26 294 0.0 0.0 0.00 0.00 0.00 86 1014.6
20260904221804 26 294 0.0 0.0 0.00 0.00 0.00 85 1014.6
20260904220817 26 294 0.0 0.0 0.00 0.00 0.00 86 1014.7
20260904220305 26 294 0.0 0.0 0.00 0.00 0.00 86 1014.6
20260904215804 26 294 0.0 0.0 0.00 0.00 0.00 86 1014.6
20260904215305 26 294 0.0 0.0 0.00 0.00 0.00 85 1014.7
20260904213804 26 294 0.0 0.0 0.00 0.00 0.00 85 1014.7
20260904213304 26 294 0.0 0.0 0.00 0.00 0.00 85 1014.7
20260904212804 26 294 0.0 0.0 0.00 0.00 0.00 85 1014.7
20260904212306 26 294 0.0 0.0 0.00 0.00 0.00 85 1014.7
20260904211804 26 294 0.0 0.0 0.00 0.00 0.00 85 1014.7
20260904211303 26 294 0.0 0.0 0.00 0.00 0.00 84 1014.8
20260904210804 26 294 0.0 0.0 0.00 0.00 0.00 85 1014.8
20260904210304 26 294 0.0 0.0 0.00 0.00 0.00 85 1014.7
20260904205804 26 294 0.0 0.0 0.00 0.00 0.00 84 1014.8
20260904205305 26 294 0.0 0.0 0.00 0.00 0.00 84 1014.8
20260904204804 26 294 0.0 0.0 0.00 0.00 0.00 84 1014.7
20260904203804 27 296 0.0 0.0 0.00 0.00 0.00 83 1014.6
20260904203304 27 337 0.0 0.0 0.00 0.00 0.00 83 1014.6
20260904202804 27 337 0.0 0.0 0.00 0.00 0.00 83 1014.5
20260904201804 27 337 0.0 0.0 0.00 0.00 0.00 83 1014.5
20260904201304 27 336 0.0 0.0 0.00 0.00 0.00 83 1014.5
20260904200804 27 337 0.0 0.0 0.00 0.00 0.00 83 1014.5
20260904200304 27 337 0.0 0.0 0.00 0.00 0.00 83 1014.4
20260904195804 27 337 0.0 0.0 0.00 0.00 0.00 83 1014.4
20260904194803 27 339 0.0 0.0 0.00 0.00 0.00 82 1014.3
20260904194303 27 339 0.0 0.0 0.00 0.00 0.00 82 1014.2
20260904193803 27 338 0.0 0.0 0.00 0.00 0.00 82 1014.2
20260904193304 27 338 0.0 0.0 0.00 0.00 0.00 82 1014.2
20260904192804 27 339 0.0 3.2 0.00 0.00 0.00 81 1014.0
20260904192306 27 338 1.6 4.8 0.00 0.00 0.00 81 1014.0
20260904191303 27 329 0.0 3.2 0.00 0.00 0.00 81 1013.9
20260904190304 27 324 0.0 3.2 0.00 0.00 0.00 80 1013.7
20260904185804 27 333 0.0 4.8 0.00 0.00 0.00 80 1013.7
20260904184304 28 340 0.0 4.8 0.00 0.00 0.00 79 1013.6
20260904183304 28 323 0.0 4.8 0.00 0.00 0.00 79 1013.4
20260904182804 28 334 0.0 0.0 0.00 0.00 0.00 79 1013.5
20260904182306 28 336 0.0 4.8 0.00 0.00 0.00 78 1013.4
20260904180804 28 334 0.0 1.6 0.00 0.00 0.00 78 1013.3
20260904180304 28 330 0.0 0.0 0.00 0.00 0.00 78 1013.2
20260904175305 29 330 0.0 4.8 0.00 0.00 0.00 79 1013.2
20260904174804 29 345 1.6 4.8 0.00 0.00 0.00 78 1013.2
20260904174303 29 308 3.2 8.0 0.00 0.00 0.00 78 1013.1
20260904173803 29 42 1.6 8.0 0.00 0.00 0.00 78 1013.1
20260904173304 29 6 1.6 9.7 0.00 0.00 0.00 78 1013.1
20260904172305 30 16 3.2 9.7 0.00 0.00 0.00 77 1013.1
20260904171804 30 61 1.6 9.7 0.00 0.00 0.00 76 1013.0
20260904171303 30 340 3.2 8.0 0.00 0.00 0.00 75 1013.0
20260904170804 31 23 1.6 8.0 0.00 0.00 0.00 73 1013.0
20260904165805 31 326 1.6 4.8 0.00 0.00 0.00 72 1012.9
20260904164805 32 355 3.2 9.7 0.00 0.00 0.00 69 1012.9
20260904164305 32 355 1.6 9.7 0.00 0.00 0.00 67 1012.8
20260904163805 33 51 1.6 9.7 0.00 0.00 0.00 63 1012.8
20260904163305 34 11 1.6 8.0 0.00 0.00 0.00 55 1012.8
20260904162804 35 98 0.0 3.2 0.00 0.00 0.00 45 1012.7
20260904162306 35 98 0.0 3.2 0.00 0.00 0.00 42 1012.9
20260904161805 35 98 0.0 3.2 0.00 0.00 0.00 41 1012.9
20260904161304 35 98 0.0 4.8 0.00 0.00 0.00 41 1012.8
20260904160805 35 121 0.0 0.0 0.00 0.00 0.00 41 1012.8
20260904160305 35 121 0.0 1.6 0.00 0.00 0.00 42 1012.8
20260904155804 35 121 0.0 3.2 0.00 0.00 0.00 43 1012.8
20260904154805 35 126 1.6 8.0 0.00 0.00 0.00 44 1012.8
20260904153805 35 138 1.6 3.2 0.00 0.00 0.00 45 1012.8
20260904153305 35 144 1.6 8.0 0.00 0.00 0.00 46 1012.8
20260904152805 35 144 0.0 1.6 0.00 0.00 0.00 48 1012.8
20260904152306 35 147 0.0 3.2 0.00 0.00 0.00 48 1012.9
20260904151805 35 148 0.0 3.2 0.00 0.00 0.00 50 1012.9
20260904151305 35 147 1.6 4.8 0.00 0.00 0.00 50 1012.9
20260904150305 35 138 3.2 4.8 0.00 0.00 0.00 50 1012.7
20260904145805 35 122 1.6 8.0 0.00 0.00 0.00 49 1012.7
20260904145306 35 129 1.6 4.8 0.00 0.00 0.00 49 1012.8
20260904144805 35 130 1.6 4.8 0.00 0.00 0.00 49 1012.8
20260904143805 35 128 1.6 8.0 0.00 0.00 0.00 51 1012.9
20260904143305 35 107 0.0 8.0 0.00 0.00 0.00 52 1012.9
20260904142306 35 129 1.6 11.3 0.00 0.00 0.00 53 1012.9